Weather History for KVKY - February, 2014

Change the Weather History Date:

Tuesday, February 11, 2014

  Actual Average Record
Temperature  
Mean Temperature 60 °F -  
Max Temperature 68 °F - - ()
Min Temperature 53 °F - - ()
Degree Days  
Heating Degree Days 4    
Growing Degree Days 10 (Base 50)    
Moisture  
Dew Point 58 °F    
Average Humidity 89    
Maximum Humidity 100    
Minimum Humidity 68    
Precipitation  
Precipitation 0.00 in - - ()
Sea Level Pressure  
Sea Level Pressure 30.00 in    
Wind  
Wind Speed 15 mph (SE)    
Max Wind Speed 29 mph    
Max Gust Speed 30 mph    
Visibility 9 miles    
Events Fog    
Averages and records for this station are not official NWS values.
T = Trace of Precipitation, MM = Missing Value Source: NWS Daily Summary

Daily Weather History Graph

Daily Weather History Graph

Search for Another Location

Airport or City:

Trip Planner

Search our weather history database for the weather conditions in past years. The results will help you decide how hot, cold, wet, or windy it might be!

Date:

Astronomy

Feb. 11, 2014 Rise Set
Actual Time 6:36 AM CST 5:40 PM CST
Civil Twilight 6:11 AM CST 6:04 PM CST
Nautical Twilight 5:43 AM CST 6:32 PM CST
Astronomical Twilight 5:15 AM CST 7:00 PM CST
Moon 3:06 PM CST (2/11) 4:06 AM CST (2/11)
Length of Visible Light 11h 53m
Length of Day
11h 04m
Waxing Gibbous, 91% of the Moon is Illuminated
Feb 11
Waxing Gibbous
Feb 14
Full
Feb 22
Last Quarter
Mar 1
New
Mar 8
First Quarter

Hourly Weather History & Observations

Time (CST) Temp. Dew Point Humidity Pressure Visibility Wind Dir Wind Speed Gust Speed Precip Events Conditions
12:15 AM 66.2 °F 55.4 °F 68% 30.03 in 10.0 mi Variable 4.6 mph 17.3 mph N/A   Clear
12:35 AM 66.2 °F 55.4 °F 68% 30.03 in 10.0 mi SW 13.8 mph 20.7 mph N/A   Scattered Clouds
12:55 AM 66.2 °F 55.4 °F 68% 30.03 in 10.0 mi SW 15.0 mph - N/A   Scattered Clouds
1:15 AM 66.2 °F 57.2 °F 73% 30.03 in 10.0 mi SW 16.1 mph - N/A   Scattered Clouds
1:35 AM 66.2 °F 57.2 °F 73% 30.03 in 10.0 mi WSW 13.8 mph - N/A   Mostly Cloudy
1:55 AM 66.2 °F 57.2 °F 73% 30.02 in 10.0 mi WSW 13.8 mph - N/A   Scattered Clouds
2:15 AM 66.2 °F 57.2 °F 73% 30.02 in 10.0 mi WSW 11.5 mph - N/A   Mostly Cloudy
2:35 AM 66.2 °F 59.0 °F 78% 30.01 in 10.0 mi SW 11.5 mph - N/A   Overcast
2:55 AM 66.2 °F 59.0 °F 78% 29.99 in 10.0 mi Calm Calm - N/A   Overcast
3:15 AM 66.2 °F 59.0 °F 78% 30.00 in 10.0 mi SW 8.1 mph - N/A   Overcast
3:35 AM 66.2 °F 59.0 °F 78% 30.00 in 10.0 mi SW 9.2 mph - N/A   Overcast
3:55 AM 66.2 °F 59.0 °F 78% 30.00 in 10.0 mi SW 9.2 mph - N/A   Overcast
4:15 AM 66.2 °F 60.8 °F 83% 29.99 in 10.0 mi Variable 6.9 mph - N/A   Overcast
4:35 AM 66.2 °F 60.8 °F 83% 29.99 in 10.0 mi SW 8.1 mph - N/A   Mostly Cloudy
4:55 AM 66.2 °F 60.8 °F 83% 29.99 in 10.0 mi SW 9.2 mph - N/A   Mostly Cloudy
5:15 AM 66.2 °F 60.8 °F 83% 29.99 in 10.0 mi Variable 5.8 mph - N/A   Overcast
5:35 AM 66.2 °F 60.8 °F 83% 30.01 in 10.0 mi SW 5.8 mph - N/A   Overcast
5:55 AM 66.2 °F 60.8 °F 83% 30.03 in 10.0 mi SW 6.9 mph - N/A   Overcast
6:15 AM 66.2 °F 60.8 °F 83% 30.02 in 10.0 mi SW 8.1 mph - N/A   Overcast
6:35 AM 66.2 °F 60.8 °F 83% 30.03 in 10.0 mi SW 5.8 mph - N/A   Overcast
6:55 AM 66.2 °F 60.8 °F 83% 30.04 in 10.0 mi Variable 3.5 mph - N/A   Overcast
7:15 AM 68.0 °F 60.8 °F 78% 30.03 in 10.0 mi Calm Calm - N/A   Mostly Cloudy
7:35 AM 68.0 °F 60.8 °F 78% 30.04 in 10.0 mi SSE 8.1 mph - N/A   Mostly Cloudy
7:55 AM 62.6 °F 59.0 °F 88% 30.04 in 10.0 mi East 25.3 mph - N/A   Overcast
8:15 AM 60.8 °F 59.0 °F 94% 30.04 in 10.0 mi ESE 25.3 mph - N/A   Overcast
8:35 AM 60.8 °F 59.0 °F 94% 30.04 in 6.0 mi ESE 24.2 mph - N/A   Overcast
8:55 AM 60.8 °F 59.0 °F 94% 30.04 in 1.8 mi ESE 23.0 mph - N/A   Overcast
9:15 AM 60.8 °F 59.0 °F 94% 30.05 in 10.0 mi ESE 24.2 mph - N/A   Overcast
9:35 AM 60.8 °F 59.0 °F 94% 30.05 in 6.0 mi SE 21.9 mph - N/A   Overcast
9:55 AM 60.8 °F 59.0 °F 94% 30.05 in 10.0 mi SE 24.2 mph - N/A   Overcast
10:15 AM 62.6 °F 60.8 °F 94% 30.04 in 4.0 mi SE 25.3 mph - N/A   Overcast
10:35 AM 62.6 °F 60.8 °F 94% 30.04 in 7.0 mi SE 24.2 mph - N/A   Overcast
10:55 AM 62.6 °F 60.8 °F 94% 30.01 in 6.0 mi SSE 26.5 mph - N/A   Overcast
11:15 AM 64.4 °F 62.6 °F 94% 30.03 in 10.0 mi SSE 20.7 mph - N/A   Overcast
11:35 AM 64.4 °F 62.6 °F 94% 29.98 in 8.0 mi SSE 23.0 mph 29.9 mph N/A   Overcast
11:55 AM 66.2 °F 62.6 °F 88% 29.99 in 10.0 mi SSE 19.6 mph - N/A   Overcast
12:15 PM 66.2 °F 64.4 °F 94% 29.98 in 8.0 mi South 8.1 mph 18.4 mph N/A   Overcast
12:35 PM 66.2 °F 64.4 °F 94% 29.98 in 1.5 mi South 16.1 mph - N/A   Overcast
12:55 PM 66.2 °F 64.4 °F 94% 30.00 in 0.2 mi NNW 16.1 mph 27.6 mph N/A Fog Fog
1:15 PM 59.0 °F 57.2 °F 94% 29.99 in 1.5 mi ENE 27.6 mph - N/A   Overcast
1:35 PM 59.0 °F 57.2 °F 94% 29.99 in 1.5 mi ENE 25.3 mph - N/A   Overcast
1:55 PM 59.0 °F 57.2 °F 94% 29.99 in 9.0 mi ENE 25.3 mph - N/A   Overcast
2:15 PM 57.2 °F 57.2 °F 100% 29.99 in 10.0 mi East 21.9 mph 29.9 mph N/A   Overcast
2:35 PM 57.2 °F 55.4 °F 94% 29.99 in 10.0 mi ENE 26.5 mph - N/A   Overcast
2:55 PM 59.0 °F 57.2 °F 94% 29.99 in 10.0 mi East 25.3 mph - N/A   Overcast
3:15 PM 59.0 °F 57.2 °F 94% 29.96 in 10.0 mi East 25.3 mph - N/A   Overcast
3:35 PM 59.0 °F 57.2 °F 94% 29.98 in 10.0 mi East 25.3 mph - N/A   Overcast
3:55 PM 59.0 °F 57.2 °F 94% 29.97 in 10.0 mi East 25.3 mph - N/A   Overcast
4:15 PM 59.0 °F 57.2 °F 94% 29.97 in 10.0 mi East 23.0 mph - N/A   Overcast
4:35 PM 59.0 °F 57.2 °F 94% 29.99 in 10.0 mi ENE 20.7 mph - N/A   Overcast
4:55 PM 59.0 °F 57.2 °F 94% 30.00 in 10.0 mi ENE 23.0 mph - N/A   Overcast
5:15 PM 57.2 °F 55.4 °F 94% 30.00 in 10.0 mi ENE 26.5 mph - N/A   Overcast
5:35 PM 55.4 °F 53.6 °F 94% 30.00 in 10.0 mi ENE 27.6 mph - N/A   Overcast
5:55 PM 55.4 °F 53.6 °F 94% 30.00 in 10.0 mi ENE 28.8 mph - N/A   Overcast
6:15 PM 53.6 °F 53.6 °F 100% 30.00 in 10.0 mi ENE 26.5 mph - N/A   Overcast
6:35 PM 55.4 °F 53.6 °F 94% 30.00 in 10.0 mi ENE 26.5 mph - N/A   Overcast
6:55 PM 55.4 °F 53.6 °F 94% 30.00 in 10.0 mi East 26.5 mph - N/A   Overcast
7:15 PM 55.4 °F 53.6 °F 94% 30.00 in 10.0 mi East 24.2 mph - N/A   Overcast
7:35 PM 55.4 °F 55.4 °F 100% 30.01 in 10.0 mi East 23.0 mph - N/A   Overcast
7:55 PM 55.4 °F 53.6 °F 94% 30.01 in 9.0 mi East 21.9 mph 28.8 mph N/A   Overcast
8:15 PM 55.4 °F 53.6 °F 94% 30.01 in 5.0 mi East 23.0 mph - N/A   Overcast
8:35 PM 55.4 °F 53.6 °F 94% 30.00 in 6.0 mi East 21.9 mph - N/A   Overcast
8:55 PM 55.4 °F 53.6 °F 94% 29.99 in 10.0 mi East 23.0 mph - N/A   Overcast
9:15 PM 57.2 °F 55.4 °F 94% 29.98 in 10.0 mi East 21.9 mph - N/A   Overcast
9:35 PM 57.2 °F 55.4 °F 94% 29.97 in 10.0 mi ESE 24.2 mph - N/A   Overcast
9:55 PM 57.2 °F 55.4 °F 94% 29.96 in 10.0 mi ESE 23.0 mph - N/A   Overcast
10:15 PM 59.0 °F 57.2 °F 94% 29.96 in 10.0 mi ESE 21.9 mph - N/A   Overcast
10:35 PM 59.0 °F 57.2 °F 94% 29.95 in 10.0 mi ESE 19.6 mph - N/A   Overcast
10:55 PM 59.0 °F 59.0 °F 100% 29.94 in 10.0 mi ESE 18.4 mph - N/A   Overcast
11:15 PM 60.8 °F 59.0 °F 94% 29.93 in 10.0 mi ESE 13.8 mph - N/A   Overcast
11:35 PM 60.8 °F 60.8 °F 100% 29.93 in 10.0 mi SE 11.5 mph - N/A   Overcast
11:55 PM 62.6 °F 60.8 °F 94% 29.91 in 10.0 mi SE 8.1 mph - N/A   Overcast